CDT,Max TemperatureF,Mean TemperatureF,Min TemperatureF,Max Dew PointF,MeanDew PointF,Min DewpointF,Max Humidity, Mean Humidity, Min Humidity, Max Sea Level PressureIn, Mean Sea Level PressureIn, Min Sea Level PressureIn, Max VisibilityMiles, Mean VisibilityMiles, Min VisibilityMiles, Max Wind SpeedMPH, Mean Wind SpeedMPH, Max Gust SpeedMPH,PrecipitationIn, CloudCover, Events, WindDirDegrees
2013-4-1,41,32,23,28,19,13,83,59,36,30.19,30.09,29.91,10,10,10,18,10,39,0.00,1,,315
2013-4-2,45,32,19,23,17,11,87,56,27,30.30,30.25,30.20,10,10,10,17,8,26,0.00,1,,307
2013-4-3,49,35,21,21,16,11,82,48,25,30.45,30.36,30.30,10,10,10,14,4,,0.00,0,,65
2013-4-4,60,42,24,32,22,17,82,48,22,30.32,30.12,29.98,10,10,10,12,4,16,0.00,0,,252
2013-4-5,53,42,32,34,25,18,84,52,27,30.20,30.13,30.00,10,10,10,16,7,21,0.00,2,Rain,47
2013-4-6,71,52,34,49,32,22,80,47,25,30.12,29.85,29.62,10,10,10,31,16,41,0.01,2,Rain-Thunderstorm,166
2013-4-7,62,52,41,48,40,34,92,68,42,29.96,29.87,29.66,10,9,5,28,12,33,0.00,2,,299
2013-4-8,71,56,41,57,50,35,100,75,54,29.96,29.78,29.61,10,9,2,29,13,38,0.52,3,Rain-Thunderstorm,123
2013-4-9,78,61,45,60,50,41,96,80,51,29.96,29.88,29.79,10,8,5,25,10,32,0.00,6,Rain-Thunderstorm,81
2013-4-10,44,42,39,44,42,39,100,98,93,29.94,29.86,29.78,10,6,2,17,9,28,0.93,8,Rain-Thunderstorm,48
2013-4-11,51,46,41,51,45,38,100,98,86,29.84,29.63,29.57,10,7,1,24,11,32,0.08,8,Rain,351
2013-4-12,44,40,37,41,36,32,97,84,70,29.88,29.71,29.60,10,10,4,23,14,30,0.00,8,Rain,255
2013-4-13,48,42,36,35,31,28,90,70,52,29.98,29.93,29.87,10,10,10,22,13,30,0.00,7,,275
2013-4-14,74,58,41,50,41,33,81,58,36,29.98,29.81,29.65,10,10,10,25,11,34,0.00,3,Rain,126
2013-4-15,65,55,46,55,50,43,99,81,55,29.99,29.83,29.71,10,10,5,26,16,37,0.14,7,Rain-Thunderstorm,222
2013-4-16,56,48,42,46,39,35,99,72,47,30.26,30.13,29.95,10,10,10,13,5,,0.00,5,Rain-Thunderstorm,358
2013-4-17,56,48,44,52,42,34,100,84,66,30.26,30.07,29.78,10,8,2,20,8,28,1.34,8,Rain-Thunderstorm,67
2013-4-18,64,52,40,62,55,34,100,97,76,29.80,29.58,29.44,10,7,1,30,10,39,2.05,7,Rain-Thunderstorm,208
2013-4-19,39,38,35,34,31,29,82,76,71,29.95,29.69,29.54,10,10,10,30,22,38,0.00,8,Rain,264
2013-4-20,46,38,30,32,27,23,99,67,46,30.41,30.22,29.96,10,10,10,16,10,21,0.00,3,Rain,303
2013-4-21,55,44,34,35,30,23,71,55,42,30.50,30.40,30.31,10,10,10,18,12,25,0.00,1,,135
2013-4-22,68,53,39,40,36,32,76,52,31,30.31,30.18,30.04,10,10,10,16,9,20,0.00,0,,150
2013-4-23,57,47,38,53,45,38,100,90,55,30.03,29.94,29.89,10,8,3,15,6,22,0.43,7,Rain,325
2013-4-24,50,43,36,39,34,30,99,74,47,30.14,30.04,29.93,10,10,10,17,8,22,0.00,6,Rain,300
2013-4-25,52,45,38,36,31,24,82,59,34,30.32,30.21,30.08,10,10,10,26,12,33,0.00,2,,260
2013-4-26,68,52,37,46,39,30,82,62,44,30.33,30.30,30.25,10,10,10,23,9,28,0.00,0,,186
2013-4-27,69,56,43,51,44,37,100,67,31,30.30,30.16,30.00,10,9,2,15,5,20,0.00,3,,157
2013-4-28,66,59,53,57,54,51,100,88,62,29.99,29.89,29.83,10,7,0,8,2,,0.00,6,Fog-Rain,292
2013-4-29,76,62,48,56,53,48,100,72,42,29.93,29.85,29.78,10,9,3,22,10,26,0.00,0,,189
2013-4-30,86,72,59,59,56,53,85,61,33,29.95,29.85,29.79,10,10,10,25,15,31,0.00,0,,180